Zurück zum Katalog

SL-12 R/B(2)

AktivGEO
NORAD 16676·ROCKET BODY·🇷🇺 Russia

Gestartet Apr 4, 1986 von Baikonur Cosmodrome

Loading…

TLE

AktuellSource: Space-Track

Epoche: Aug 28, 2026, 18:21 UTC

1 16676U 86027F   26240.76475712 -.00000037  00000-0  00000+0 0  9992
2 16676  11.6151 322.1554 0035064 149.2027 200.8315  0.97689357120723

Verfolge SL-12 R/B(2) in Echtzeit mit AllMySat

Download on the App Store